Time,TemperatureF,DewpointF,PressureIn,WindDirection,WindDirectionDegrees,WindSpeedMPH,WindSpeedGustMPH,Humidity,HourlyPrecipIn,Conditions,Clouds,dailyrainin,SoftwareType,DateUTC
2013-02-06 00:00:00,44.5,23.4,29.86,South,173,0.0,0.0,43,0.00,,,0.00,Wunderground v.1.15,2013-02-06 07:00:00,
2013-02-06 00:05:00,44.4,23.3,29.85,South,173,0.0,0.0,43,0.00,,,0.00,Wunderground v.1.15,2013-02-06 07:05:00,
2013-02-06 00:15:00,44.3,23.7,29.85,South,173,0.0,0.0,44,0.00,,,0.00,Wunderground v.1.15,2013-02-06 07:15:00,
2013-02-06 00:20:00,44.2,23.6,29.85,South,173,0.0,0.0,44,0.00,,,0.00,Wunderground v.1.15,2013-02-06 07:20:00,
2013-02-06 00:25:00,44.1,23.6,29.85,South,173,0.0,0.0,44,0.00,,,0.00,Wunderground v.1.15,2013-02-06 07:25:00,
2013-02-06 00:30:00,44.0,23.5,29.85,South,173,0.0,0.0,44,0.00,,,0.00,Wunderground v.1.15,2013-02-06 07:30:00,
2013-02-06 00:35:00,44.0,23.5,29.85,South,173,0.0,0.0,44,0.00,,,0.00,Wunderground v.1.15,2013-02-06 07:35:00,
2013-02-06 00:40:00,44.0,24.0,29.85,South,173,0.0,0.0,45,0.00,,,0.00,Wunderground v.1.15,2013-02-06 07:40:00,
2013-02-06 00:50:00,44.0,24.0,29.85,South,173,0.0,0.0,45,0.00,,,0.00,Wunderground v.1.15,2013-02-06 07:50:00,
2013-02-06 01:00:00,43.9,23.9,29.84,South,173,0.0,0.0,45,0.00,,,0.00,Wunderground v.1.15,2013-02-06 08:00:00,
2013-02-06 01:05:00,43.9,23.9,29.84,South,173,0.0,0.0,45,0.00,,,0.00,Wunderground v.1.15,2013-02-06 08:05:00,
2013-02-06 01:15:00,43.8,23.8,29.84,South,173,0.0,0.0,45,0.00,,,0.00,Wunderground v.1.15,2013-02-06 08:15:00,
2013-02-06 01:20:00,43.7,24.2,29.84,South,173,0.0,0.0,46,0.00,,,0.00,Wunderground v.1.15,2013-02-06 08:20:00,
2013-02-06 01:25:00,43.7,24.8,29.84,South,173,0.0,0.0,47,0.00,,,0.00,Wunderground v.1.15,2013-02-06 08:25:00,
2013-02-06 01:30:00,43.6,24.7,29.83,South,173,0.0,0.0,47,0.00,,,0.00,Wunderground v.1.15,2013-02-06 08:30:00,
2013-02-06 01:35:00,43.6,25.2,29.83,South,173,0.0,0.0,48,0.00,,,0.00,Wunderground v.1.15,2013-02-06 08:35:00,
2013-02-06 01:40:00,43.6,25.2,29.83,South,173,0.0,0.0,48,0.00,,,0.00,Wunderground v.1.15,2013-02-06 08:40:00,
2013-02-06 01:45:00,43.6,25.2,29.83,South,173,0.0,0.0,48,0.00,,,0.00,Wunderground v.1.15,2013-02-06 08:45:00,
2013-02-06 01:50:00,43.5,25.6,29.83,South,173,0.0,0.0,49,0.00,,,0.00,Wunderground v.1.15,2013-02-06 08:50:00,
2013-02-06 02:00:00,43.4,26.0,29.82,South,173,0.0,0.0,50,0.00,,,0.00,Wunderground v.1.15,2013-02-06 09:00:00,
2013-02-06 02:10:00,43.3,25.9,29.82,South,173,0.0,0.0,50,0.00,,,0.00,Wunderground v.1.15,2013-02-06 09:10:00,
2013-02-06 02:15:00,43.3,26.4,29.82,South,173,0.0,0.0,51,0.00,,,0.00,Wunderground v.1.15,2013-02-06 09:15:00,
2013-02-06 02:20:00,43.2,26.3,29.82,South,173,0.0,0.0,51,0.00,,,0.00,Wunderground v.1.15,2013-02-06 09:20:00,
2013-02-06 02:25:00,43.1,26.2,29.82,South,173,0.0,0.0,51,0.00,,,0.00,Wunderground v.1.15,2013-02-06 09:25:00,
2013-02-06 02:35:00,42.9,25.5,29.82,South,173,0.0,0.0,50,0.00,,,0.00,Wunderground v.1.15,2013-02-06 09:35:00,
2013-02-06 02:40:00,42.7,25.8,29.82,South,173,0.0,0.0,51,0.00,,,0.00,Wunderground v.1.15,2013-02-06 09:40:00,
2013-02-06 02:45:00,42.6,25.7,29.82,South,173,0.0,0.0,51,0.00,,,0.00,Wunderground v.1.15,2013-02-06 09:45:00,
2013-02-06 02:50:00,42.4,26.0,29.82,South,173,0.0,0.0,52,0.00,,,0.00,Wunderground v.1.15,2013-02-06 09:50:00,
2013-02-06 02:55:00,42.2,26.3,29.82,South,173,0.0,0.0,53,0.00,,,0.00,Wunderground v.1.15,2013-02-06 09:55:00,
2013-02-06 03:05:00,41.8,25.9,29.83,South,173,0.0,0.0,53,0.00,,,0.00,Wunderground v.1.15,2013-02-06 10:05:00,
2013-02-06 03:15:00,41.6,26.2,29.83,South,173,0.0,0.0,54,0.00,,,0.00,Wunderground v.1.15,2013-02-06 10:15:00,
2013-02-06 03:20:00,41.4,26.0,29.83,South,173,0.0,0.0,54,0.00,,,0.00,Wunderground v.1.15,2013-02-06 10:20:00,
2013-02-06 03:25:00,41.2,26.2,29.83,South,173,0.0,0.0,55,0.00,,,0.00,Wunderground v.1.15,2013-02-06 10:25:00,
2013-02-06 03:30:00,41.1,26.1,29.83,South,173,0.0,0.0,55,0.00,,,0.00,Wunderground v.1.15,2013-02-06 10:30:00,
2013-02-06 03:35:00,41.0,27.3,29.83,South,173,0.0,0.0,58,0.00,,,0.00,Wunderground v.1.15,2013-02-06 10:35:00,
2013-02-06 03:45:00,40.8,26.3,29.83,South,173,0.0,0.0,56,0.00,,,0.00,Wunderground v.1.15,2013-02-06 10:45:00,
2013-02-06 03:50:00,40.7,26.2,29.83,South,173,0.0,0.0,56,0.00,,,0.00,Wunderground v.1.15,2013-02-06 10:50:00,
2013-02-06 03:55:00,40.6,26.5,29.83,South,173,0.0,0.0,57,0.00,,,0.00,Wunderground v.1.15,2013-02-06 10:55:00,
2013-02-06 04:00:00,40.6,26.5,29.83,South,173,0.0,0.0,57,0.00,,,0.00,Wunderground v.1.15,2013-02-06 11:00:00,
2013-02-06 04:05:00,40.5,26.4,29.84,South,173,0.0,0.0,57,0.00,,,0.00,Wunderground v.1.15,2013-02-06 11:05:00,
2013-02-06 04:15:00,40.4,25.9,29.84,South,173,0.0,0.0,56,0.00,,,0.00,Wunderground v.1.15,2013-02-06 11:15:00,
2013-02-06 04:20:00,40.3,25.8,29.84,South,173,0.0,0.0,56,0.00,,,0.00,Wunderground v.1.15,2013-02-06 11:20:00,
2013-02-06 04:25:00,40.2,25.7,29.84,South,173,0.0,0.0,56,0.00,,,0.00,Wunderground v.1.15,2013-02-06 11:25:00,
2013-02-06 04:30:00,40.0,26.0,29.84,South,173,0.0,0.0,57,0.00,,,0.00,Wunderground v.1.15,2013-02-06 11:30:00,
2013-02-06 04:35:00,39.9,25.9,29.85,South,173,0.0,0.0,57,0.00,,,0.00,Wunderground v.1.15,2013-02-06 11:35:00,
2013-02-06 04:40:00,39.8,25.8,29.85,South,173,0.0,0.0,57,0.00,,,0.00,Wunderground v.1.15,2013-02-06 11:40:00,
2013-02-06 04:50:00,39.5,25.1,29.85,South,173,0.0,0.0,56,0.00,,,0.00,Wunderground v.1.15,2013-02-06 11:50:00,
2013-02-06 04:55:00,39.3,24.9,29.85,South,173,0.0,0.0,56,0.00,,,0.00,Wunderground v.1.15,2013-02-06 11:55:00,
2013-02-06 05:00:00,39.1,24.7,29.85,South,173,0.0,0.0,56,0.00,,,0.00,Wunderground v.1.15,2013-02-06 12:00:00,
2013-02-06 05:10:00,38.8,24.9,29.87,South,173,0.0,0.0,57,0.00,,,0.00,Wunderground v.1.15,2013-02-06 12:10:00,
2013-02-06 05:15:00,38.6,24.7,29.87,South,173,0.0,0.0,57,0.00,,,0.00,Wunderground v.1.15,2013-02-06 12:15:00,
2013-02-06 05:20:00,38.4,24.5,29.87,South,173,0.0,0.0,57,0.00,,,0.00,Wunderground v.1.15,2013-02-06 12:20:00,
2013-02-06 05:25:00,38.3,24.8,29.88,South,173,0.0,0.0,58,0.00,,,0.00,Wunderground v.1.15,2013-02-06 12:25:00,
2013-02-06 05:30:00,38.1,24.6,29.88,South,173,0.0,0.0,58,0.00,,,0.00,Wunderground v.1.15,2013-02-06 12:30:00,
2013-02-06 05:35:00,37.9,24.4,29.87,South,173,0.0,0.0,58,0.00,,,0.00,Wunderground v.1.15,2013-02-06 12:35:00,
2013-02-06 05:40:00,37.7,24.6,29.88,South,173,0.0,0.0,59,0.00,,,0.00,Wunderground v.1.15,2013-02-06 12:40:00,
2013-02-06 05:45:00,37.5,24.5,29.88,South,173,0.0,0.0,59,0.00,,,0.00,Wunderground v.1.15,2013-02-06 12:45:00,
2013-02-06 05:50:00,37.3,24.7,29.88,South,173,0.0,0.0,60,0.00,,,0.00,Wunderground v.1.15,2013-02-06 12:50:00,
2013-02-06 05:55:00,37.2,24.6,29.88,South,173,0.0,0.0,60,0.00,,,0.00,Wunderground v.1.15,2013-02-06 12:55:00,
2013-02-06 06:00:00,37.1,24.5,29.88,South,173,0.0,0.0,60,0.00,,,0.00,Wunderground v.1.15,2013-02-06 13:00:00,
2013-02-06 06:10:00,37.1,25.3,29.90,South,173,0.0,0.0,62,0.00,,,0.00,Wunderground v.1.15,2013-02-06 13:10:00,
2013-02-06 06:15:00,37.1,26.0,29.90,South,173,0.0,0.0,64,0.00,,,0.00,Wunderground v.1.15,2013-02-06 13:15:00,
2013-02-06 06:20:00,37.1,26.4,29.91,South,173,0.0,0.0,65,0.00,,,0.00,Wunderground v.1.15,2013-02-06 13:20:00,
2013-02-06 06:25:00,37.3,26.6,29.91,South,173,0.0,0.0,65,0.00,,,0.00,Wunderground v.1.15,2013-02-06 13:25:00,
2013-02-06 06:30:00,37.3,26.2,29.91,South,173,0.0,0.0,64,0.00,,,0.00,Wunderground v.1.15,2013-02-06 13:30:00,
2013-02-06 06:35:00,37.3,26.2,29.91,South,173,0.0,0.0,64,0.00,,,0.00,Wunderground v.1.15,2013-02-06 13:35:00,
2013-02-06 06:40:00,37.4,26.3,29.91,South,173,0.0,0.0,64,0.00,,,0.00,Wunderground v.1.15,2013-02-06 13:40:00,
2013-02-06 06:50:00,37.5,26.4,29.92,South,173,0.0,0.0,64,0.00,,,0.00,Wunderground v.1.15,2013-02-06 13:50:00,
2013-02-06 06:55:00,37.5,26.8,29.92,South,173,0.0,0.0,65,0.00,,,0.00,Wunderground v.1.15,2013-02-06 13:55:00,
2013-02-06 07:00:00,37.5,26.4,29.92,South,173,0.0,0.0,64,0.00,,,0.00,Wunderground v.1.15,2013-02-06 14:00:00,
2013-02-06 07:05:00,37.5,26.4,29.95,South,173,0.0,0.0,64,0.00,,,0.00,Wunderground v.1.15,2013-02-06 14:05:00,
2013-02-06 07:15:00,37.4,25.9,29.95,South,173,0.0,0.0,63,0.00,,,0.00,Wunderground v.1.15,2013-02-06 14:15:00,
2013-02-06 07:20:00,37.2,25.0,29.95,South,173,0.0,0.0,61,0.00,,,0.00,Wunderground v.1.15,2013-02-06 14:20:00,
2013-02-06 07:25:00,37.1,24.9,29.95,South,173,0.0,0.0,61,0.00,,,0.00,Wunderground v.1.15,2013-02-06 14:25:00,
2013-02-06 07:35:00,36.8,24.2,29.96,South,173,0.0,0.0,60,0.00,,,0.00,Wunderground v.1.15,2013-02-06 14:35:00,
2013-02-06 07:45:00,36.8,24.2,29.96,South,173,0.0,0.0,60,0.00,,,0.00,Wunderground v.1.15,2013-02-06 14:45:00,
2013-02-06 07:50:00,36.8,24.2,29.96,South,173,0.0,0.0,60,0.00,,,0.00,Wunderground v.1.15,2013-02-06 14:50:00,
2013-02-06 07:55:00,36.9,24.7,29.96,South,173,0.0,0.0,61,0.00,,,0.00,Wunderground v.1.15,2013-02-06 14:55:00,
2013-02-06 08:00:00,37.1,24.9,29.96,South,173,0.0,0.0,61,0.00,,,0.00,Wunderground v.1.15,2013-02-06 15:00:00,
2013-02-06 08:05:00,37.4,25.2,29.98,South,173,0.0,0.0,61,0.00,,,0.00,Wunderground v.1.15,2013-02-06 15:05:00,
2013-02-06 08:15:00,38.7,26.8,29.98,South,173,0.0,0.0,62,0.00,,,0.00,Wunderground v.1.15,2013-02-06 15:15:00,
2013-02-06 08:20:00,39.7,26.9,29.97,South,173,0.0,0.0,60,0.00,,,0.00,Wunderground v.1.15,2013-02-06 15:20:00,
2013-02-06 08:30:00,42.1,29.2,29.96,South,180,0.0,0.0,60,0.00,,,0.00,Wunderground v.1.15,2013-02-06 15:30:00,
2013-02-06 08:35:00,43.6,29.8,29.95,South,180,0.0,0.0,58,0.00,,,0.00,Wunderground v.1.15,2013-02-06 15:35:00,
2013-02-06 08:40:00,44.8,29.6,29.95,South,179,0.0,0.0,55,0.00,,,0.00,Wunderground v.1.15,2013-02-06 15:40:00,
2013-02-06 08:50:00,46.8,30.6,29.94,South,180,0.0,0.0,53,0.00,,,0.00,Wunderground v.1.15,2013-02-06 15:50:00,
2013-02-06 08:55:00,47.7,30.9,29.93,South,180,0.0,0.0,52,0.00,,,0.00,Wunderground v.1.15,2013-02-06 15:55:00,
2013-02-06 09:00:00,48.8,31.5,29.93,South,180,0.0,0.0,51,0.00,,,0.00,Wunderground v.1.15,2013-02-06 16:00:00,
2013-02-06 09:05:00,49.9,31.5,29.94,SW,234,0.0,2.0,49,0.00,,,0.00,Wunderground v.1.15,2013-02-06 16:05:00,
2013-02-06 09:15:00,51.4,31.3,29.93,South,169,0.0,0.0,46,0.00,,,0.00,Wunderground v.1.15,2013-02-06 16:15:00,
2013-02-06 09:25:00,52.6,31.8,29.92,SSW,201,0.0,0.0,45,0.00,,,0.00,Wunderground v.1.15,2013-02-06 16:25:00,
2013-02-06 09:30:00,53.1,31.7,29.92,SSW,202,0.0,0.0,44,0.00,,,0.00,Wunderground v.1.15,2013-02-06 16:30:00,
2013-02-06 09:35:00,53.6,31.6,29.92,WSW,240,0.0,0.0,43,0.00,,,0.00,Wunderground v.1.15,2013-02-06 16:35:00,
2013-02-06 09:40:00,54.2,31.6,29.93,SE,124,0.0,1.0,42,0.00,,,0.00,Wunderground v.1.15,2013-02-06 16:40:00,
2013-02-06 09:45:00,54.7,32.0,29.92,SE,127,0.0,1.0,42,0.00,,,0.00,Wunderground v.1.15,2013-02-06 16:45:00,
2013-02-06 09:50:00,55.3,32.0,29.92,ESE,108,0.0,0.0,41,0.00,,,0.00,Wunderground v.1.15,2013-02-06 16:50:00,
2013-02-06 10:00:00,56.3,32.3,29.92,SW,217,1.0,1.0,40,0.00,,,0.00,Wunderground v.1.15,2013-02-06 17:00:00,
2013-02-06 10:05:00,56.8,32.1,29.91,WSW,249,0.0,1.0,39,0.00,,,0.00,Wunderground v.1.15,2013-02-06 17:05:00,
2013-02-06 10:15:00,57.8,32.3,29.91,WNW,283,0.0,0.0,38,0.00,,,0.00,Wunderground v.1.15,2013-02-06 17:15:00,
2013-02-06 10:20:00,58.3,32.1,29.91,SW,233,0.0,0.0,37,0.00,,,0.00,Wunderground v.1.15,2013-02-06 17:20:00,
2013-02-06 10:25:00,59.0,32.7,29.90,SW,232,0.0,0.0,37,0.00,,,0.00,Wunderground v.1.15,2013-02-06 17:25:00,
2013-02-06 10:35:00,59.3,32.3,29.90,West,260,0.0,0.0,36,0.00,,,0.00,Wunderground v.1.15,2013-02-06 17:35:00,
2013-02-06 10:40:00,59.5,32.5,29.90,West,262,0.0,0.0,36,0.00,,,0.00,Wunderground v.1.15,2013-02-06 17:40:00,
2013-02-06 10:45:00,59.6,32.6,29.90,ESE,115,0.0,0.0,36,0.00,,,0.00,Wunderground v.1.15,2013-02-06 17:45:00,
2013-02-06 10:50:00,59.8,32.8,29.89,WSW,240,0.0,0.0,36,0.00,,,0.00,Wunderground v.1.15,2013-02-06 17:50:00,
2013-02-06 10:55:00,60.1,32.3,29.89,SW,225,0.0,0.0,35,0.00,,,0.00,Wunderground v.1.15,2013-02-06 17:55:00,
2013-02-06 11:05:00,60.6,32.8,29.89,SW,227,0.0,0.0,35,0.00,,,0.00,Wunderground v.1.15,2013-02-06 18:05:00,
2013-02-06 11:15:00,60.8,32.2,29.89,West,259,0.0,3.0,34,0.00,,,0.00,Wunderground v.1.15,2013-02-06 18:15:00,
2013-02-06 11:20:00,61.0,32.4,29.89,ESE,112,0.0,1.0,34,0.00,,,0.00,Wunderground v.1.15,2013-02-06 18:20:00,
2013-02-06 11:25:00,61.1,32.5,29.88,WSW,238,0.0,1.0,34,0.00,,,0.00,Wunderground v.1.15,2013-02-06 18:25:00,
2013-02-06 11:30:00,61.3,32.7,29.88,SSW,195,0.0,0.0,34,0.00,,,0.00,Wunderground v.1.15,2013-02-06 18:30:00,
2013-02-06 11:40:00,61.9,33.2,29.87,WSW,238,0.0,0.0,34,0.00,,,0.00,Wunderground v.1.15,2013-02-06 18:40:00,
2013-02-06 11:45:00,62.3,32.8,29.87,SE,134,0.0,0.0,33,0.00,,,0.00,Wunderground v.1.15,2013-02-06 18:45:00,
2013-02-06 11:50:00,62.7,33.2,29.85,ESE,110,0.0,3.0,33,0.00,,,0.00,Wunderground v.1.15,2013-02-06 18:50:00,
2013-02-06 11:55:00,63.0,33.4,29.85,SE,132,1.0,3.0,33,0.00,,,0.00,Wunderground v.1.15,2013-02-06 18:55:00,
2013-02-06 12:00:00,63.4,33.0,29.85,WSW,257,0.0,0.0,32,0.00,,,0.00,Wunderground v.1.15,2013-02-06 19:00:00,
2013-02-06 12:05:00,63.6,33.2,29.84,SW,227,1.0,1.0,32,0.00,,,0.00,Wunderground v.1.15,2013-02-06 19:05:00,
2013-02-06 12:15:00,64.1,32.8,29.83,SE,138,1.0,1.0,31,0.00,,,0.00,Wunderground v.1.15,2013-02-06 19:15:00,
2013-02-06 12:25:00,65.3,33.0,29.83,WSW,244,1.0,1.0,30,0.00,,,0.00,Wunderground v.1.15,2013-02-06 19:25:00,
2013-02-06 12:30:00,65.5,32.4,29.82,West,265,2.0,2.0,29,0.00,,,0.00,Wunderground v.1.15,2013-02-06 19:30:00,
2013-02-06 12:35:00,65.7,32.5,29.81,West,264,2.0,2.0,29,0.00,,,0.00,Wunderground v.1.15,2013-02-06 19:35:00,
2013-02-06 12:40:00,65.9,32.7,29.81,SW,217,1.0,1.0,29,0.00,,,0.00,Wunderground v.1.15,2013-02-06 19:40:00,
2013-02-06 12:50:00,65.6,31.6,29.81,West,265,0.0,0.0,28,0.00,,,0.00,Wunderground v.1.15,2013-02-06 19:50:00,
2013-02-06 12:55:00,65.6,32.5,29.81,WSW,246,1.0,1.0,29,0.00,,,0.00,Wunderground v.1.15,2013-02-06 19:55:00,
2013-02-06 13:00:00,65.6,32.5,29.80,WSW,244,1.0,1.0,29,0.00,,,0.00,Wunderground v.1.15,2013-02-06 20:00:00,
2013-02-06 13:05:00,65.5,32.4,29.81,SSW,213,1.0,1.0,29,0.00,,,0.00,Wunderground v.1.15,2013-02-06 20:05:00,
2013-02-06 13:15:00,65.1,32.9,29.80,East,84,1.0,1.0,30,0.00,,,0.00,Wunderground v.1.15,2013-02-06 20:15:00,
2013-02-06 13:20:00,65.4,33.1,29.80,NW,307,1.0,1.0,30,0.00,,,0.00,Wunderground v.1.15,2013-02-06 20:20:00,
2013-02-06 13:30:00,65.6,31.6,29.80,SW,236,0.0,0.0,28,0.00,,,0.00,Wunderground v.1.15,2013-02-06 20:30:00,
2013-02-06 13:35:00,65.5,31.5,29.80,South,172,1.0,1.0,28,0.00,,,0.00,Wunderground v.1.15,2013-02-06 20:35:00,
2013-02-06 13:40:00,65.4,31.4,29.79,ESE,122,0.0,0.0,28,0.00,,,0.00,Wunderground v.1.15,2013-02-06 20:40:00,
2013-02-06 13:45:00,65.5,31.5,29.79,SW,215,0.0,4.0,28,0.00,,,0.00,Wunderground v.1.15,2013-02-06 20:45:00,
2013-02-06 13:55:00,66.0,31.9,29.79,SSW,206,1.0,1.0,28,0.00,,,0.00,Wunderground v.1.15,2013-02-06 20:55:00,
2013-02-06 14:00:00,65.9,31.8,29.79,SSW,209,0.0,0.0,28,0.00,,,0.00,Wunderground v.1.15,2013-02-06 21:00:00,
2013-02-06 14:05:00,65.6,31.6,29.79,WSW,240,1.0,2.0,28,0.00,,,0.00,Wunderground v.1.15,2013-02-06 21:05:00,
2013-02-06 14:15:00,65.4,32.3,29.79,NE,36,0.0,1.0,29,0.00,,,0.00,Wunderground v.1.15,2013-02-06 21:15:00,
2013-02-06 14:20:00,65.6,32.5,29.78,West,281,1.0,1.0,29,0.00,,,0.00,Wunderground v.1.15,2013-02-06 21:20:00,
2013-02-06 14:30:00,66.1,32.0,29.78,SW,223,1.0,1.0,28,0.00,,,0.00,Wunderground v.1.15,2013-02-06 21:30:00,
2013-02-06 14:40:00,67.0,32.8,29.78,West,268,2.0,2.0,28,0.00,,,0.00,Wunderground v.1.15,2013-02-06 21:40:00,
2013-02-06 14:45:00,66.9,31.8,29.78,WSW,250,2.0,2.0,27,0.00,,,0.00,Wunderground v.1.15,2013-02-06 21:45:00,
2013-02-06 14:50:00,67.0,31.9,29.77,WSW,257,2.0,2.0,27,0.00,,,0.00,Wunderground v.1.15,2013-02-06 21:50:00,
2013-02-06 14:55:00,67.1,32.9,29.77,NW,319,1.0,2.0,28,0.00,,,0.00,Wunderground v.1.15,2013-02-06 21:55:00,
2013-02-06 15:05:00,66.6,32.5,29.77,WSW,256,1.0,1.0,28,0.00,,,0.00,Wunderground v.1.15,2013-02-06 22:05:00,
2013-02-06 15:15:00,66.3,32.2,29.78,SW,228,1.0,5.0,28,0.00,,,0.00,Wunderground v.1.15,2013-02-06 22:15:00,
2013-02-06 15:20:00,66.0,32.8,29.77,WSW,252,1.0,1.0,29,0.00,,,0.00,Wunderground v.1.15,2013-02-06 22:20:00,
2013-02-06 15:25:00,65.9,31.8,29.77,WSW,254,1.0,5.0,28,0.00,,,0.00,Wunderground v.1.15,2013-02-06 22:25:00,
2013-02-06 15:35:00,65.8,30.9,29.78,West,259,3.0,3.0,27,0.00,,,0.00,Wunderground v.1.15,2013-02-06 22:35:00,
2013-02-06 15:45:00,66.0,31.0,29.78,WSW,258,2.0,5.0,27,0.00,,,0.00,Wunderground v.1.15,2013-02-06 22:45:00,
2013-02-06 15:50:00,66.2,31.2,29.78,SW,227,2.0,4.0,27,0.00,,,0.00,Wunderground v.1.15,2013-02-06 22:50:00,
2013-02-06 15:55:00,66.3,30.4,29.78,West,276,2.0,4.0,26,0.00,,,0.00,Wunderground v.1.15,2013-02-06 22:55:00,
2013-02-06 16:00:00,66.3,30.4,29.78,West,259,2.0,3.0,26,0.00,,,0.00,Wunderground v.1.15,2013-02-06 23:00:00,
2013-02-06 16:05:00,66.3,30.4,29.79,WNW,299,3.0,3.0,26,0.00,,,0.00,Wunderground v.1.15,2013-02-06 23:05:00,
2013-02-06 16:15:00,65.7,30.8,29.79,West,277,2.0,2.0,27,0.00,,,0.00,Wunderground v.1.15,2013-02-06 23:15:00,
2013-02-06 16:20:00,65.0,31.1,29.79,West,268,3.0,3.0,28,0.00,,,0.00,Wunderground v.1.15,2013-02-06 23:20:00,
2013-02-06 16:25:00,64.4,30.6,29.79,West,264,3.0,3.0,28,0.00,,,0.00,Wunderground v.1.15,2013-02-06 23:25:00,
2013-02-06 16:30:00,63.8,30.9,29.80,WSW,252,1.0,1.0,29,0.00,,,0.00,Wunderground v.1.15,2013-02-06 23:30:00,
2013-02-06 16:35:00,63.3,31.3,29.81,West,259,1.0,3.0,30,0.00,,,0.00,Wunderground v.1.15,2013-02-06 23:35:00,
2013-02-06 16:45:00,62.7,31.6,29.81,West,261,1.0,1.0,31,0.00,,,0.00,Wunderground v.1.15,2013-02-06 23:45:00,
2013-02-06 16:55:00,62.6,32.3,29.81,West,265,1.0,3.0,32,0.00,,,0.00,Wunderground v.1.15,2013-02-06 23:55:00,
2013-02-06 17:00:00,62.6,32.3,29.81,West,273,2.0,2.0,32,0.00,,,0.00,Wunderground v.1.15,2013-02-07 00:00:00,
2013-02-06 17:05:00,62.6,32.3,29.82,WSW,254,2.0,2.0,32,0.00,,,0.00,Wunderground v.1.15,2013-02-07 00:05:00,
2013-02-06 17:15:00,62.3,32.0,29.83,WNW,290,2.0,3.0,32,0.00,,,0.00,Wunderground v.1.15,2013-02-07 00:15:00,
2013-02-06 17:20:00,62.1,31.9,29.84,WSW,238,2.0,2.0,32,0.00,,,0.00,Wunderground v.1.15,2013-02-07 00:20:00,
2013-02-06 17:25:00,61.9,31.7,29.84,West,267,2.0,2.0,32,0.00,,,0.00,Wunderground v.1.15,2013-02-07 00:25:00,
2013-02-06 17:30:00,61.6,32.2,29.84,West,264,2.0,4.0,33,0.00,,,0.00,Wunderground v.1.15,2013-02-07 00:30:00,
2013-02-06 17:35:00,61.3,31.2,29.84,NW,312,2.0,4.0,32,0.00,,,0.00,Wunderground v.1.15,2013-02-07 00:35:00,
2013-02-06 17:40:00,61.0,30.9,29.84,West,268,1.0,1.0,32,0.00,,,0.00,Wunderground v.1.15,2013-02-07 00:40:00,
2013-02-06 17:50:00,60.4,31.1,29.84,West,269,1.0,1.0,33,0.00,,,0.00,Wunderground v.1.15,2013-02-07 00:50:00,
2013-02-06 18:00:00,60.0,31.5,29.85,West,275,1.0,1.0,34,0.00,,,0.00,Wunderground v.1.15,2013-02-07 01:00:00,
2013-02-06 18:05:00,59.7,31.3,29.85,West,265,0.0,1.0,34,0.00,,,0.00,Wunderground v.1.15,2013-02-07 01:05:00,
2013-02-06 18:15:00,59.2,30.8,29.86,WSW,245,1.0,1.0,34,0.00,,,0.00,Wunderground v.1.15,2013-02-07 01:15:00,
2013-02-06 18:25:00,59.0,30.6,29.87,WSW,246,1.0,1.0,34,0.00,,,0.00,Wunderground v.1.15,2013-02-07 01:25:00,
2013-02-06 18:30:00,59.0,30.6,29.87,SW,226,0.0,0.0,34,0.00,,,0.00,Wunderground v.1.15,2013-02-07 01:30:00,
2013-02-06 18:35:00,58.7,30.4,29.87,West,269,0.0,4.0,34,0.00,,,0.00,Wunderground v.1.15,2013-02-07 01:35:00,
2013-02-06 18:40:00,58.6,30.3,29.87,WSW,244,0.0,0.0,34,0.00,,,0.00,Wunderground v.1.15,2013-02-07 01:40:00,
2013-02-06 18:45:00,58.5,30.2,29.87,West,263,0.0,0.0,34,0.00,,,0.00,Wunderground v.1.15,2013-02-07 01:45:00,
2013-02-06 18:50:00,58.4,30.1,29.87,West,271,0.0,1.0,34,0.00,,,0.00,Wunderground v.1.15,2013-02-07 01:50:00,
2013-02-06 18:55:00,58.3,30.0,29.88,WSW,258,0.0,1.0,34,0.00,,,0.00,Wunderground v.1.15,2013-02-07 01:55:00,
2013-02-06 19:00:00,58.2,30.7,29.88,West,275,0.0,0.0,35,0.00,,,0.00,Wunderground v.1.15,2013-02-07 02:00:00,
2013-02-06 19:05:00,58.1,30.6,29.89,West,279,0.0,0.0,35,0.00,,,0.00,Wunderground v.1.15,2013-02-07 02:05:00,
2013-02-06 19:15:00,57.9,30.4,29.89,WSW,252,0.0,0.0,35,0.00,,,0.00,Wunderground v.1.15,2013-02-07 02:15:00,
2013-02-06 19:20:00,57.8,30.3,29.89,WSW,238,0.0,0.0,35,0.00,,,0.00,Wunderground v.1.15,2013-02-07 02:20:00,
2013-02-06 19:25:00,57.7,30.9,29.89,West,279,0.0,1.0,36,0.00,,,0.00,Wunderground v.1.15,2013-02-07 02:25:00,
2013-02-06 19:35:00,57.5,30.7,29.89,SW,227,0.0,0.0,36,0.00,,,0.00,Wunderground v.1.15,2013-02-07 02:35:00,
2013-02-06 19:40:00,57.3,30.5,29.90,SW,214,0.0,0.0,36,0.00,,,0.00,Wunderground v.1.15,2013-02-07 02:40:00,
2013-02-06 19:45:00,57.3,30.5,29.90,SW,220,0.0,0.0,36,0.00,,,0.00,Wunderground v.1.15,2013-02-07 02:45:00,
2013-02-06 19:50:00,57.1,31.0,29.90,SW,220,0.0,0.0,37,0.00,,,0.00,Wunderground v.1.15,2013-02-07 02:50:00,
2013-02-06 19:55:00,57.1,31.0,29.91,SW,221,0.0,0.0,37,0.00,,,0.00,Wunderground v.1.15,2013-02-07 02:55:00,
2013-02-06 20:05:00,56.8,30.8,29.85,SW,220,0.0,0.0,37,0.00,,,0.00,Wunderground v.1.15,2013-02-07 03:05:00,
2013-02-06 20:15:00,56.4,30.4,29.86,SW,227,0.0,0.0,37,0.00,,,0.00,Wunderground v.1.15,2013-02-07 03:15:00,
2013-02-06 20:20:00,56.2,30.2,29.86,SW,227,0.0,0.0,37,0.00,,,0.00,Wunderground v.1.15,2013-02-07 03:20:00,
2013-02-06 20:25:00,56.0,30.1,29.86,SW,228,0.0,0.0,37,0.00,,,0.00,Wunderground v.1.15,2013-02-07 03:25:00,
2013-02-06 20:30:00,55.9,30.0,29.87,SW,228,0.0,0.0,37,0.00,,,0.00,Wunderground v.1.15,2013-02-07 03:30:00,
2013-02-06 20:40:00,55.4,29.5,29.87,SW,227,0.0,0.0,37,0.00,,,0.00,Wunderground v.1.15,2013-02-07 03:40:00,
2013-02-06 20:45:00,55.2,30.0,29.87,SW,228,0.0,0.0,38,0.00,,,0.00,Wunderground v.1.15,2013-02-07 03:45:00,
2013-02-06 20:50:00,54.9,29.7,29.87,SW,227,0.0,0.0,38,0.00,,,0.00,Wunderground v.1.15,2013-02-07 03:50:00,
2013-02-06 20:55:00,54.6,29.5,29.87,SW,227,0.0,0.0,38,0.00,,,0.00,Wunderground v.1.15,2013-02-07 03:55:00,
2013-02-06 21:05:00,54.1,29.7,29.84,SW,228,0.0,0.0,39,0.00,,,0.00,Wunderground v.1.15,2013-02-07 04:05:00,
2013-02-06 21:15:00,53.8,30.0,29.85,WSW,239,0.0,0.0,40,0.00,,,0.00,Wunderground v.1.15,2013-02-07 04:15:00,
2013-02-06 21:20:00,53.7,29.9,29.85,WSW,238,0.0,0.0,40,0.00,,,0.00,Wunderground v.1.15,2013-02-07 04:20:00,
2013-02-06 21:25:00,53.6,29.8,29.85,WSW,239,0.0,0.0,40,0.00,,,0.00,Wunderground v.1.15,2013-02-07 04:25:00,
2013-02-06 21:30:00,53.5,29.7,29.85,WSW,239,0.0,0.0,40,0.00,,,0.00,Wunderground v.1.15,2013-02-07 04:30:00,
2013-02-06 21:35:00,53.2,29.5,29.86,WSW,238,0.0,0.0,40,0.00,,,0.00,Wunderground v.1.15,2013-02-07 04:35:00,
2013-02-06 21:40:00,52.7,29.0,29.86,WSW,239,0.0,0.0,40,0.00,,,0.00,Wunderground v.1.15,2013-02-07 04:40:00,
2013-02-06 21:50:00,52.0,29.0,29.87,SW,229,0.0,0.0,41,0.00,,,0.00,Wunderground v.1.15,2013-02-07 04:50:00,
2013-02-06 21:55:00,51.8,29.4,29.87,SW,229,0.0,0.0,42,0.00,,,0.00,Wunderground v.1.15,2013-02-07 04:55:00,
2013-02-06 22:00:00,51.6,29.2,29.87,SW,229,0.0,0.0,42,0.00,,,0.00,Wunderground v.1.15,2013-02-07 05:00:00,
2013-02-06 22:05:00,51.5,29.1,29.85,SW,227,0.0,0.0,42,0.00,,,0.00,Wunderground v.1.15,2013-02-07 05:05:00,
2013-02-06 22:10:00,51.4,29.6,29.86,SW,226,0.0,0.0,43,0.00,,,0.00,Wunderground v.1.15,2013-02-07 05:10:00,
2013-02-06 22:15:00,51.3,29.5,29.86,SW,226,0.0,0.0,43,0.00,,,0.00,Wunderground v.1.15,2013-02-07 05:15:00,
2013-02-06 22:20:00,51.2,29.4,29.86,SW,225,0.0,0.0,43,0.00,,,0.00,Wunderground v.1.15,2013-02-07 05:20:00,
2013-02-06 22:25:00,51.2,29.4,29.86,SW,225,0.0,0.0,43,0.00,,,0.00,Wunderground v.1.15,2013-02-07 05:25:00,
2013-02-06 22:30:00,51.1,29.4,29.87,SSE,161,0.0,0.0,43,0.00,,,0.00,Wunderground v.1.15,2013-02-07 05:30:00,
2013-02-06 22:35:00,51.0,29.3,29.87,SSE,161,0.0,0.0,43,0.00,,,0.00,Wunderground v.1.15,2013-02-07 05:35:00,
2013-02-06 22:40:00,50.9,29.7,29.87,SSE,161,0.0,0.0,44,0.00,,,0.00,Wunderground v.1.15,2013-02-07 05:40:00,
2013-02-06 22:45:00,50.8,29.1,29.87,SSE,161,0.0,0.0,43,0.00,,,0.00,Wunderground v.1.15,2013-02-07 05:45:00,
2013-02-06 22:50:00,50.7,29.6,29.87,SSE,161,0.0,0.0,44,0.00,,,0.00,Wunderground v.1.15,2013-02-07 05:50:00,
2013-02-06 22:55:00,50.6,28.9,29.88,SSE,161,0.0,0.0,43,0.00,,,0.00,Wunderground v.1.15,2013-02-07 05:55:00,
2013-02-06 23:00:00,50.3,28.6,29.88,SSE,160,0.0,0.0,43,0.00,,,0.00,Wunderground v.1.15,2013-02-07 06:00:00,
2013-02-06 23:05:00,50.1,29.0,29.87,SSE,161,0.0,0.0,44,0.00,,,0.00,Wunderground v.1.15,2013-02-07 06:05:00,
2013-02-06 23:15:00,49.5,29.0,29.87,SSE,161,0.0,0.0,45,0.00,,,0.00,Wunderground v.1.15,2013-02-07 06:15:00,
2013-02-06 23:20:00,49.2,28.7,29.87,SSE,161,0.0,0.0,45,0.00,,,0.00,Wunderground v.1.15,2013-02-07 06:20:00,
2013-02-06 23:30:00,48.8,28.4,29.87,SSE,161,0.0,0.0,45,0.00,,,0.00,Wunderground v.1.15,2013-02-07 06:30:00,
2013-02-06 23:35:00,48.7,28.8,29.87,SSE,160,0.0,0.0,46,0.00,,,0.00,Wunderground v.1.15,2013-02-07 06:35:00,
2013-02-06 23:40:00,48.4,28.5,29.87,SSE,161,0.0,0.0,46,0.00,,,0.00,Wunderground v.1.15,2013-02-07 06:40:00,
2013-02-06 23:45:00,48.3,29.0,29.88,SSE,161,0.0,0.0,47,0.00,,,0.00,Wunderground v.1.15,2013-02-07 06:45:00,
2013-02-06 23:50:00,48.1,28.8,29.88,SSE,161,0.0,0.0,47,0.00,,,0.00,Wunderground v.1.15,2013-02-07 06:50:00,
2013-02-06 23:55:00,47.9,28.6,29.88,SSE,161,0.0,0.0,47,0.00,,,0.00,Wunderground v.1.15,2013-02-07 06:55:00,